Macon, GA

12:22 AM EST on December 16, 2019 (GMT -0500)
Middle Georgia Regional

Weather History for KMCN - November, 2019

Change the Weather History Date:

Tuesday, November 12, 2019

  Actual Average Record
Temperature  
Mean Temperature 46 °F 57 °F  
Max Temperature 61 °F 70 °F 83 °F (1989)
Min Temperature 30 °F 44 °F 27 °F (1987)
Degree Days  
Heating Degree Days 19 9  
Month to date heating degree days 136 89  
Since 1 July heating degree days 165 192  
Cooling Degree Days 0 1  
Month to date cooling degree days 0 12  
Year to date cooling degree days 2779 2156  
Moisture  
Dew Point 41 °F    
Average Humidity 73    
Maximum Humidity 93    
Minimum Humidity 53    
Precipitation  
Precipitation 0.17 in 0.11 in 2.02 in (1930)
Month to date precipitation 0.51 1.18  
Year to date precipitation 33.42 39.50  
Snow  
Snow 0.00 in 0.00 in 0.00 in (2002)
Month to date snowfall 0.0 0.0  
Since 1 July snowfall 0.0 0.0  
Since 1 September snowfall 0.0 0.0  
Snow Depth 0.00 in    
Sea Level Pressure  
Sea Level Pressure 30.03 in    
Wind  
Wind Speed 10 mph (NW)    
Max Wind Speed 22 mph    
Max Gust Speed 29 mph    
Visibility 9 miles    
Events Rain    
T = Trace of Precipitation, MM = Missing Value Source: NWS Daily Summary

Daily Weather History Graph

Daily Weather History Graph

Search for Another Location

Airport or City:

Astronomy

Nov. 12, 2019 Rise Set
Actual Time 7:01 AM EST 5:35 PM EST
Civil Twilight 6:35 AM EST 6:01 PM EST
Nautical Twilight 6:06 AM EST 6:30 PM EST
Astronomical Twilight 5:36 AM EST 7:00 PM EST
Moon 6:00 PM EST (11/12) 6:55 AM EST (11/12)
Length of Visible Light 11h 25m
Length of Day
10h 33m
Full, 100% of the Moon is Illuminated
Nov 12
Full
Nov 19
Last Quarter
Nov 26
New
Dec 4
First Quarter
Dec 12
Full

Hourly Weather History & Observations

Time (EST) Temp. Windchill Dew Point Humidity Pressure Visibility Wind Dir Wind Speed Gust Speed Precip Events Conditions
1:53 AM 57.9 °F - 51.1 °F 78% 29.96 in 10.0 mi East 5.8 mph - N/A   Mostly Cloudy
2:53 AM 57.0 °F - 51.1 °F 81% 29.92 in 10.0 mi East 3.5 mph - N/A   Mostly Cloudy
3:53 AM 57.9 °F - 52.0 °F 81% 29.90 in 10.0 mi Calm Calm - N/A   Overcast
4:53 AM 57.9 °F - 52.0 °F 81% 29.88 in 10.0 mi SSE 4.6 mph - N/A   Overcast
5:53 AM 61.0 °F - 53.1 °F 75% 29.90 in 10.0 mi SW 5.8 mph - N/A   Overcast
6:53 AM 60.1 °F - 54.0 °F 80% 29.90 in 10.0 mi SW 4.6 mph - 0.01 in Rain Light Rain
7:48 AM 60.8 °F - 55.4 °F 82% 29.93 in 5.0 mi NW 9.2 mph - 0.00 in Rain Light Rain
7:53 AM 59.0 °F - 55.9 °F 90% 29.93 in 2.0 mi NW 8.1 mph - 0.01 in Rain Heavy Rain
8:00 AM 59.0 °F - 55.9 °F 90% 29.93 in 1.8 mi WNW 5.8 mph - 0.03 in Rain Rain
8:05 AM 59.0 °F - 55.9 °F 90% 29.93 in 3.0 mi NW 5.8 mph - 0.04 in Rain Light Rain
8:14 AM 59.0 °F - 55.9 °F 90% 29.93 in 2.5 mi WNW 5.8 mph - 0.05 in Rain Rain
8:20 AM 59.0 °F - 57.0 °F 93% 29.94 in 3.0 mi WNW 5.8 mph - 0.07 in Rain Rain
8:24 AM 59.0 °F - 57.0 °F 93% 29.94 in 3.0 mi NW 8.1 mph - 0.07 in Rain Rain
8:53 AM 55.9 °F - 53.1 °F 90% 29.96 in 2.5 mi NW 13.8 mph - 0.14 in Rain Rain
9:00 AM 55.0 °F - 52.0 °F 89% 29.97 in 5.0 mi NNW 13.8 mph - 0.01 in Rain Light Rain
9:30 AM 51.1 °F - 46.9 °F 86% 29.99 in 10.0 mi NW 16.1 mph - 0.01 in   Overcast
9:53 AM 48.0 °F - 45.0 °F 89% 30.01 in 10.0 mi NW 16.1 mph 25.3 mph 0.01 in Rain Light Rain
10:15 AM 46.9 °F - 43.0 °F 86% 30.02 in 10.0 mi NNW 15.0 mph 25.3 mph 0.00 in Rain Light Rain
10:25 AM 46.9 °F - 43.0 °F 86% 30.02 in 10.0 mi NNW 12.7 mph 20.7 mph 0.00 in   Overcast
10:53 AM 45.0 °F 37.9 °F 41.0 °F 86% 30.04 in 10.0 mi NW 16.1 mph - 0.00 in   Overcast
11:05 AM 45.0 °F 37.9 °F 39.9 °F 82% 30.04 in 10.0 mi NW 16.1 mph 27.6 mph N/A   Overcast
11:13 AM 45.0 °F 38.2 °F 39.9 °F 82% 30.04 in 10.0 mi NNW 15.0 mph 24.2 mph N/A   Overcast
11:24 AM 46.0 °F 40.6 °F 41.0 °F 83% 30.04 in 10.0 mi NW 11.5 mph - N/A   Overcast
11:39 AM 46.0 °F 39.3 °F 39.0 °F 76% 30.05 in 10.0 mi NNW 16.1 mph 25.3 mph N/A   Overcast
11:53 AM 45.0 °F 37.9 °F 39.0 °F 80% 30.05 in 10.0 mi NW 16.1 mph 24.2 mph N/A   Overcast
12:42 PM 43.0 °F 35.7 °F 36.0 °F 76% 30.05 in 10.0 mi NW 15.0 mph 23.0 mph N/A   Overcast
12:51 PM 42.8 °F 35.4 °F 37.4 °F 81% 30.04 in 10.0 mi NW 15.0 mph 23.0 mph 0.00 in Rain Light Rain
12:53 PM 43.0 °F 35.7 °F 36.0 °F 76% 30.04 in 10.0 mi NW 15.0 mph 23.0 mph 0.00 in Rain Light Rain
1:49 PM 44.6 °F 38.4 °F 35.6 °F 71% 30.04 in 10.0 mi NNW 12.7 mph 23.0 mph 0.00 in   Scattered Clouds
2:53 PM 48.9 °F - 34.0 °F 56% 30.04 in 10.0 mi NW 16.1 mph 25.3 mph N/A   Clear
3:53 PM 48.9 °F - 32.0 °F 52% 30.05 in 10.0 mi NW 15.0 mph 23.0 mph N/A   Clear
4:53 PM 45.0 °F 38.2 °F 28.9 °F 53% 30.08 in 10.0 mi North 15.0 mph 20.7 mph N/A   Clear
5:53 PM 39.9 °F 32.1 °F 27.0 °F 60% 30.12 in 10.0 mi NNW 13.8 mph - N/A   Clear
6:53 PM 37.9 °F 30.5 °F 26.1 °F 62% 30.14 in 10.0 mi NNW 11.5 mph 18.4 mph N/A   Clear
7:53 PM 35.1 °F 26.9 °F 24.1 °F 64% 30.18 in 10.0 mi NNW 11.5 mph 16.1 mph N/A   Clear
8:53 PM 34.0 °F 26.0 °F 23.0 °F 64% 30.20 in 10.0 mi North 10.4 mph - N/A   Clear
9:53 PM 32.0 °F 23.6 °F 21.9 °F 66% 30.22 in 10.0 mi North 10.4 mph - N/A   Clear
10:53 PM 30.9 °F 23.5 °F 21.9 °F 69% 30.24 in 10.0 mi NNW 8.1 mph - N/A   Clear
11:53 PM 30.0 °F 23.2 °F 21.9 °F 72% 30.25 in 10.0 mi North 6.9 mph - N/A   Clear